AFR194B LFPG-VOBL

Flight info

Callsign AFR194B
Flight time N/A
Altitude 37000
Route BUBLI DCT LUVAL DCT MIRGU DCT BEGAR DCT TRA DCT GAMSA DCT GEDSO DCT VEKEN DCT GORPA DCT TIVNU/N0461F390 DCT VEBAR DCT NISVA Q13 UDROS DCT CRM DCT ROLIN N644 TETRO DCT BARAD M747 SUBUT T923 ERLEV M11 RODAR A909 TUNEK B143 KRS A240 INRAK B449 DOLOS B475 NINOP B801 RANAH L750 ZB G202 RK P628 VIKIT Z8 AAE/N0475F400 R458 BVR/N0478F390 R458 BBB Q13 BEKUT Q9 RIKBU RIKBU7F
Aircraft A332/H-SDE3GHIJ2J3J5M1RVWXY/LB2D1

Departure

Time 2026-05-05 22:16
Airport Charles de Gaulle International Airport (LFPG)

Arrival

Time N/A
Airport Kempegowda International Airport Bengaluru (VOBL)
Time Latitude Longitude Altitude Speed Heading
2026-05-05 21:51 49.00126 2.57526 362 ft 0 kts 359°
2026-05-05 22:03 49.00114 2.57527 363 ft 3 kts 359°
2026-05-05 22:03 49.00093 2.57528 358 ft 3 kts 358°
2026-05-05 22:03 49.00077 2.57529 358 ft 2 kts 360°
2026-05-05 22:03 49.00060 2.57525 360 ft 3 kts 39°
2026-05-05 22:04 49.00050 2.57503 367 ft 3 kts 79°
2026-05-05 22:04 49.00048 2.57483 364 ft 1 kts 85°
2026-05-05 22:04 49.00048 2.57479 364 ft 0 kts 85°
2026-05-05 22:07 49.00049 2.57501 367 ft 5 kts 85°
2026-05-05 22:07 49.00051 2.57537 365 ft 2 kts 85°
2026-05-05 22:07 49.00053 2.57569 361 ft 4 kts 85°
2026-05-05 22:08 49.00056 2.57620 361 ft 7 kts 85°
2026-05-05 22:08 49.00056 2.57671 365 ft 3 kts 97°
2026-05-05 22:08 49.00053 2.57683 360 ft 1 kts 106°
2026-05-05 22:08 49.00025 2.57727 365 ft 11 kts 152°
2026-05-05 22:09 48.99997 2.57721 362 ft 0 kts 221°
2026-05-05 22:09 48.99987 2.57691 362 ft 11 kts 249°
2026-05-05 22:09 48.99973 2.57553 363 ft 11 kts 263°
2026-05-05 22:09 48.99966 2.57454 361 ft 7 kts 264°
2026-05-05 22:10 48.99962 2.57388 362 ft 8 kts 265°
2026-05-05 22:10 48.99954 2.57253 359 ft 17 kts 265°
2026-05-05 22:10 48.99942 2.57027 364 ft 24 kts 265°
2026-05-05 22:10 48.99929 2.56792 366 ft 20 kts 263°
2026-05-05 22:11 48.99920 2.56610 363 ft 15 kts 265°
2026-05-05 22:11 48.99912 2.56473 363 ft 11 kts 266°
2026-05-05 22:11 48.99907 2.56375 361 ft 8 kts 264°
2026-05-05 22:11 48.99903 2.56310 363 ft 6 kts 264°
2026-05-05 22:12 48.99895 2.56195 361 ft 15 kts 265°
2026-05-05 22:12 48.99888 2.56036 364 ft 16 kts 270°
2026-05-05 22:12 48.99909 2.55840 362 ft 21 kts 284°
2026-05-05 22:12 48.99922 2.55614 363 ft 20 kts 257°
2026-05-05 22:13 48.99891 2.55422 361 ft 16 kts 266°
2026-05-05 22:13 48.99878 2.55272 364 ft 10 kts 246°
2026-05-05 22:13 48.99825 2.55249 365 ft 11 kts 177°
2026-05-05 22:13 48.99738 2.55303 365 ft 16 kts 135°
2026-05-05 22:14 48.99667 2.55441 367 ft 15 kts 133°
2026-05-05 22:14 48.99599 2.55549 364 ft 14 kts 121°
2026-05-05 22:14 48.99590 2.55659 361 ft 0 kts 85°
2026-05-05 22:15 48.99595 2.55729 358 ft 27 kts 85°
2026-05-05 22:15 48.99626 2.56316 367 ft 82 kts 85°
2026-05-05 22:15 48.99686 2.57446 363 ft 130 kts 85°
2026-05-05 22:16 48.99772 2.59028 363 ft 169 kts 85°
2026-05-05 22:16 48.99848 2.60908 722 ft 180 kts 84°
2026-05-05 22:16 48.99889 2.62831 1302 ft 185 kts 82°
2026-05-05 22:16 48.99943 2.64752 1988 ft 179 kts 86°
2026-05-05 22:17 48.99878 2.66729 2263 ft 195 kts 89°
2026-05-05 22:17 48.99880 2.68896 2520 ft 213 kts 81°
2026-05-05 22:17 49.00102 2.71212 2768 ft 233 kts 78°
2026-05-05 22:18 49.00550 2.79101 4302 ft 265 kts 94°
2026-05-05 22:18 49.00306 2.81915 4972 ft 270 kts 98°
2026-05-05 22:18 49.00012 2.84776 5691 ft 273 kts 99°
2026-05-05 22:19 48.99713 2.87611 6438 ft 275 kts 99°
2026-05-05 22:19 48.99408 2.90507 7162 ft 278 kts 99°
2026-05-05 22:19 48.99099 2.93435 7857 ft 282 kts 99°
2026-05-05 22:19 48.98707 2.96389 8539 ft 286 kts 108°
2026-05-05 22:20 48.97989 2.99214 9296 ft 288 kts 114°
2026-05-05 22:20 48.97173 3.01965 10006 ft 290 kts 116°
2026-05-05 22:20 48.96291 3.04869 10346 ft 307 kts 116°
2026-05-05 22:20 48.95370 3.07905 10615 ft 325 kts 116°
2026-05-05 22:21 48.94410 3.11084 10868 ft 342 kts 116°
2026-05-05 22:21 48.93388 3.14469 11121 ft 358 kts 116°
2026-05-05 22:21 48.92339 3.17950 11398 ft 371 kts 116°
2026-05-05 22:21 48.91246 3.21581 11869 ft 378 kts 116°
2026-05-05 22:22 48.90160 3.25182 12458 ft 381 kts 116°
2026-05-05 22:22 48.89043 3.28882 13049 ft 385 kts 116°
2026-05-05 22:22 48.87917 3.32604 13628 ft 388 kts 117°
2026-05-05 22:22 48.86796 3.36303 14134 ft 391 kts 116°
2026-05-05 22:23 48.85646 3.40090 14650 ft 393 kts 116°
2026-05-05 22:23 48.84496 3.43872 15167 ft 396 kts 116°
2026-05-05 22:23 48.83347 3.47646 15679 ft 399 kts 116°
2026-05-05 22:23 48.82175 3.51492 16164 ft 402 kts 117°
2026-05-05 22:24 48.81177 3.55504 16631 ft 408 kts 104°
2026-05-05 22:24 48.80771 3.59737 17161 ft 411 kts 97°
2026-05-05 22:24 48.80515 3.64096 17688 ft 414 kts 96°
2026-05-05 22:24 48.80289 3.68465 18229 ft 416 kts 95°
2026-05-05 22:25 48.80059 3.72805 18616 ft 418 kts 97°
2026-05-05 22:25 48.79757 3.77226 19078 ft 420 kts 97°
2026-05-05 22:25 48.79451 3.81611 19514 ft 421 kts 97°
2026-05-05 22:25 48.79146 3.86033 19952 ft 422 kts 97°
2026-05-05 22:26 48.78842 3.90488 20385 ft 424 kts 97°
2026-05-05 22:26 48.78537 3.94969 20819 ft 426 kts 97°
2026-05-05 22:26 48.78233 3.99447 21232 ft 427 kts 97°
2026-05-05 22:26 48.77931 4.03883 21644 ft 429 kts 97°
2026-05-05 22:27 48.77606 4.08403 22046 ft 430 kts 99°
2026-05-05 22:27 48.77013 4.12868 22460 ft 430 kts 107°
2026-05-05 22:27 48.75946 4.17063 22854 ft 431 kts 117°
2026-05-05 22:27 48.74439 4.20998 23248 ft 432 kts 123°
2026-05-05 22:28 48.72763 4.24794 23588 ft 433 kts 125°
2026-05-05 22:28 48.71004 4.28526 23890 ft 435 kts 126°
2026-05-05 22:28 48.69228 4.32200 24199 ft 437 kts 127°
2026-05-05 22:28 48.67424 4.35919 24510 ft 439 kts 127°
2026-05-05 22:29 48.65627 4.39645 24851 ft 440 kts 127°
2026-05-05 22:29 48.63824 4.43414 25160 ft 441 kts 126°
2026-05-05 22:29 48.62048 4.47146 25447 ft 443 kts 126°
2026-05-05 22:29 48.60242 4.50954 25760 ft 445 kts 126°
2026-05-05 22:30 48.58428 4.54782 26044 ft 447 kts 126°
2026-05-05 22:30 48.56639 4.58557 26331 ft 448 kts 126°
2026-05-05 22:30 48.54812 4.62409 26590 ft 451 kts 126°
2026-05-05 22:30 48.52970 4.66282 26846 ft 453 kts 126°
2026-05-05 22:31 48.51150 4.70105 27126 ft 455 kts 126°
2026-05-05 22:31 48.49290 4.74002 27410 ft 456 kts 126°
2026-05-05 22:31 48.47440 4.77871 27667 ft 458 kts 127°
2026-05-05 22:31 48.45569 4.81780 27899 ft 460 kts 127°
2026-05-05 22:32 48.44319 4.84388 28091 ft 461 kts 127°
2026-05-05 22:32 48.42448 4.88287 28356 ft 462 kts 127°
2026-05-05 22:32 48.40547 4.92242 28612 ft 464 kts 127°
2026-05-05 22:32 48.38646 4.96193 28866 ft 466 kts 127°
2026-05-05 22:33 48.36760 5.00109 29184 ft 465 kts 127°
2026-05-05 22:33 48.34862 5.04041 29577 ft 464 kts 127°
2026-05-05 22:33 48.32979 5.07939 29952 ft 463 kts 127°
2026-05-05 22:33 48.31124 5.11909 30206 ft 464 kts 123°
2026-05-05 22:34 48.29589 5.16206 30399 ft 467 kts 115°
2026-05-05 22:34 48.28492 5.20764 30597 ft 470 kts 109°
2026-05-05 22:34 48.27558 5.25501 30845 ft 471 kts 108°
2026-05-05 22:34 48.26705 5.30272 31118 ft 471 kts 107°
2026-05-05 22:35 48.25900 5.34983 31373 ft 471 kts 106°
2026-05-05 22:35 48.25089 5.39793 31619 ft 472 kts 106°
2026-05-05 22:35 48.24287 5.44516 31873 ft 472 kts 106°
2026-05-05 22:35 48.23465 5.49305 32126 ft 472 kts 107°
2026-05-05 22:36 48.22641 5.54041 32342 ft 472 kts 107°
2026-05-05 22:36 48.21802 5.58820 32576 ft 473 kts 107°
2026-05-05 22:36 48.20956 5.63605 32781 ft 473 kts 107°
2026-05-05 22:36 48.20116 5.68336 33023 ft 474 kts 107°
2026-05-05 22:37 48.19261 5.73130 33282 ft 473 kts 107°
2026-05-05 22:37 48.18417 5.77854 33517 ft 473 kts 107°
2026-05-05 22:37 48.17564 5.82620 33740 ft 474 kts 107°
2026-05-05 22:37 48.16703 5.87414 33947 ft 474 kts 107°
2026-05-05 22:38 48.15831 5.92131 34121 ft 474 kts 109°
2026-05-05 22:38 48.14919 5.96906 34285 ft 474 kts 109°
2026-05-05 22:38 48.14020 6.01618 34456 ft 474 kts 109°
2026-05-05 22:38 48.13121 6.06388 34645 ft 474 kts 109°
2026-05-05 22:39 48.12245 6.11101 34805 ft 474 kts 109°
2026-05-05 22:39 48.11368 6.15869 34972 ft 475 kts 109°
2026-05-05 22:39 48.10492 6.20654 35120 ft 475 kts 109°
2026-05-05 22:39 48.09618 6.25440 35277 ft 475 kts 109°
2026-05-05 22:40 48.08756 6.30149 35427 ft 475 kts 109°
2026-05-05 22:40 48.07876 6.34945 35586 ft 476 kts 109°
2026-05-05 22:40 48.06995 6.39729 35720 ft 476 kts 109°
2026-05-05 22:40 48.06124 6.44446 35860 ft 476 kts 109°
2026-05-05 22:41 48.05237 6.49229 36004 ft 477 kts 109°
2026-05-05 22:41 48.04346 6.54024 36153 ft 477 kts 109°
2026-05-05 22:41 48.03455 6.58805 36298 ft 477 kts 110°
2026-05-05 22:42 48.01771 6.68402 36484 ft 481 kts 105°
2026-05-05 22:42 48.01122 6.73325 36654 ft 481 kts 105°
2026-05-05 22:42 48.00516 6.78187 36805 ft 481 kts 104°
2026-05-05 22:43 47.99332 6.88072 36864 ft 482 kts 104°
2026-05-05 22:43 47.98159 6.97910 36862 ft 482 kts 104°
2026-05-05 22:44 47.96973 7.07729 36859 ft 481 kts 104°
2026-05-05 22:44 47.95772 7.17539 36859 ft 481 kts 104°
2026-05-05 22:45 47.94558 7.27370 36855 ft 482 kts 105°
2026-05-05 22:45 47.93337 7.37176 36861 ft 483 kts 105°
2026-05-05 22:46 47.92101 7.47033 36860 ft 483 kts 105°
2026-05-05 22:46 47.90802 7.56819 36877 ft 481 kts 110°
2026-05-05 22:47 47.88694 7.66248 36876 ft 478 kts 115°
2026-05-05 22:47 47.86370 7.75512 36881 ft 480 kts 116°
2026-05-05 22:48 47.83993 7.84760 36885 ft 480 kts 116°
2026-05-05 22:48 47.81598 7.94088 36884 ft 480 kts 116°
2026-05-05 22:49 47.79218 8.03366 36897 ft 480 kts 116°
2026-05-05 22:49 47.76843 8.12604 36902 ft 480 kts 116°
2026-05-05 22:50 47.74447 8.21886 36904 ft 480 kts 116°
2026-05-05 22:50 47.72051 8.31134 36902 ft 480 kts 116°
2026-05-05 22:51 47.69648 8.40364 36903 ft 480 kts 116°
2026-05-05 22:51 47.67354 8.49689 36906 ft 483 kts 114°
2026-05-05 22:52 47.65228 8.59182 36907 ft 484 kts 114°
2026-05-05 22:52 47.63125 8.68638 36907 ft 484 kts 114°
2026-05-05 22:53 47.60992 8.78074 36906 ft 484 kts 114°
2026-05-05 22:53 47.58837 8.87496 36905 ft 484 kts 114°
2026-05-05 22:54 47.56668 8.96914 36903 ft 484 kts 114°
2026-05-05 22:54 47.54485 9.06360 36902 ft 485 kts 114°
2026-05-05 22:55 47.52289 9.15821 36901 ft 484 kts 114°
2026-05-05 22:55 47.50098 9.25223 36898 ft 485 kts 115°
2026-05-05 22:56 47.47896 9.34629 36904 ft 485 kts 115°
2026-05-05 22:56 47.45685 9.44031 36944 ft 484 kts 115°
2026-05-05 22:57 47.43482 9.53365 36909 ft 485 kts 115°
2026-05-05 22:57 47.41258 9.62801 36892 ft 486 kts 112°
2026-05-05 22:58 47.39660 9.72530 36908 ft 491 kts 108°
2026-05-05 22:58 47.38273 9.82364 36909 ft 491 kts 107°
2026-05-05 22:59 47.36920 9.92242 36912 ft 492 kts 107°
2026-05-05 22:59 47.35543 10.02158 36888 ft 494 kts 108°
2026-05-05 23:00 47.33453 10.16974 36898 ft 493 kts 108°
2026-05-05 23:00 47.32048 10.26809 36900 ft 494 kts 108°
2026-05-05 23:01 47.30628 10.36701 36906 ft 493 kts 108°
2026-05-05 23:01 47.29193 10.46622 36899 ft 493 kts 108°
2026-05-05 23:02 47.27764 10.56448 36903 ft 492 kts 108°
2026-05-05 23:02 47.26321 10.66302 36911 ft 492 kts 108°
2026-05-05 23:03 47.24878 10.76084 36904 ft 492 kts 108°
2026-05-05 23:03 47.23417 10.85949 36904 ft 493 kts 108°
2026-05-05 23:04 47.21941 10.95843 36910 ft 493 kts 109°
2026-05-05 23:04 47.20476 11.05613 36918 ft 492 kts 109°
2026-05-05 23:05 47.18991 11.15456 36924 ft 492 kts 109°
2026-05-05 23:05 47.17509 11.25206 36917 ft 492 kts 109°
2026-05-05 23:06 47.16004 11.35021 36898 ft 493 kts 109°
2026-05-05 23:06 47.14491 11.44840 36916 ft 492 kts 109°
2026-05-05 23:07 47.12974 11.54641 36922 ft 493 kts 109°
2026-05-05 23:07 47.11444 11.64437 36927 ft 493 kts 109°
2026-05-05 23:08 47.09903 11.74263 36951 ft 493 kts 109°
2026-05-05 23:08 47.08335 11.84017 36945 ft 490 kts 111°
2026-05-05 23:09 47.05822 11.93233 36967 ft 483 kts 121°
2026-05-05 23:09 47.02921 12.02096 36954 ft 483 kts 123°
2026-05-05 23:10 46.99941 12.10881 36954 ft 483 kts 123°
2026-05-05 23:10 46.96952 12.19677 37003 ft 483 kts 123°
2026-05-05 23:11 46.93957 12.28523 37010 ft 483 kts 123°
2026-05-05 23:11 46.90977 12.37320 36993 ft 483 kts 123°
2026-05-05 23:12 46.87990 12.46118 37014 ft 483 kts 123°
2026-05-05 23:12 46.84998 12.54891 37006 ft 483 kts 123°
2026-05-05 23:13 46.81999 12.63657 37005 ft 484 kts 123°
2026-05-05 23:13 46.78990 12.72423 36963 ft 483 kts 123°
2026-05-05 23:14 46.75964 12.81225 37000 ft 484 kts 123°
2026-05-05 23:14 46.72947 12.89952 36990 ft 483 kts 123°
2026-05-05 23:15 46.69928 12.98654 36999 ft 483 kts 123°
2026-05-05 23:15 46.66898 13.07361 36964 ft 482 kts 123°
2026-05-05 23:16 46.63864 13.16055 36992 ft 482 kts 123°
2026-05-05 23:16 46.60823 13.24738 36990 ft 482 kts 123°
2026-05-05 23:17 46.57765 13.33441 36990 ft 484 kts 123°
2026-05-05 23:17 46.54621 13.42121 36992 ft 482 kts 125°
2026-05-05 23:18 46.51338 13.50587 36964 ft 483 kts 126°
2026-05-05 23:18 46.48016 13.59033 36988 ft 483 kts 126°
2026-05-05 23:19 46.44695 13.67506 36984 ft 484 kts 126°
2026-05-05 23:19 46.41379 13.75977 36987 ft 483 kts 126°
2026-05-05 23:20 46.38058 13.84448 36976 ft 487 kts 126°
2026-05-05 23:20 46.34703 13.92974 36971 ft 489 kts 126°
2026-05-05 23:21 46.31312 14.01561 36954 ft 490 kts 126°
2026-05-05 23:21 46.27931 14.10099 36981 ft 490 kts 126°
2026-05-05 23:22 46.24540 14.18631 36988 ft 494 kts 126°
2026-05-05 23:22 46.21104 14.27247 36994 ft 497 kts 126°
2026-05-05 23:23 46.17635 14.35932 36992 ft 497 kts 126°
2026-05-05 23:23 46.14190 14.44527 36994 ft 496 kts 126°
2026-05-05 23:24 46.10735 14.53115 36992 ft 497 kts 125°
2026-05-05 23:24 46.07267 14.61710 36989 ft 497 kts 125°
2026-05-05 23:25 46.03794 14.70290 36988 ft 497 kts 126°
2026-05-05 23:25 46.00295 14.78910 36988 ft 497 kts 126°
2026-05-05 23:26 45.96806 14.87474 36985 ft 497 kts 125°
2026-05-05 23:26 45.93321 14.96008 36982 ft 496 kts 125°
2026-05-05 23:27 45.89810 15.04577 36976 ft 495 kts 125°
2026-05-05 23:27 45.86319 15.13068 36974 ft 495 kts 125°
2026-05-05 23:28 45.82824 15.21544 36970 ft 495 kts 124°
2026-05-05 23:28 45.79303 15.30058 36968 ft 495 kts 124°
2026-05-05 23:29 45.75745 15.38453 36966 ft 494 kts 127°
2026-05-05 23:29 45.71985 15.46638 36968 ft 493 kts 128°
2026-05-05 23:30 45.68793 15.53448 36967 ft 493 kts 128°
2026-05-05 23:30 45.64996 15.61571 36970 ft 494 kts 128°
2026-05-05 23:31 45.60558 15.71102 36971 ft 493 kts 128°
2026-05-05 23:31 45.57388 15.77907 36968 ft 493 kts 128°
2026-05-05 23:32 45.53594 15.86028 36980 ft 494 kts 127°
2026-05-05 23:32 45.49780 15.94168 36958 ft 494 kts 127°
2026-05-05 23:33 45.45946 16.02326 36978 ft 494 kts 127°
2026-05-05 23:33 45.42125 16.10433 36944 ft 494 kts 128°
2026-05-05 23:34 45.38304 16.18514 36970 ft 496 kts 127°
2026-05-05 23:34 45.34425 16.26696 36963 ft 497 kts 127°
2026-05-05 23:35 45.30564 16.34818 36975 ft 496 kts 128°
2026-05-05 23:35 45.26695 16.42932 36963 ft 496 kts 127°
2026-05-05 23:36 45.22817 16.51043 36969 ft 498 kts 127°
2026-05-05 23:36 45.18927 16.59154 36976 ft 498 kts 127°
2026-05-05 23:37 45.15022 16.67275 36978 ft 498 kts 127°
2026-05-05 23:37 45.11132 16.75341 36969 ft 498 kts 127°
2026-05-05 23:38 45.07217 16.83438 36978 ft 499 kts 127°
2026-05-05 23:38 45.03281 16.91553 36978 ft 499 kts 128°
2026-05-05 23:39 44.99355 16.99626 36970 ft 499 kts 128°
2026-05-05 23:39 44.95612 17.07901 36974 ft 502 kts 122°
2026-05-05 23:40 44.92265 17.16536 36965 ft 503 kts 120°
2026-05-05 23:40 44.88971 17.25279 36966 ft 503 kts 120°
2026-05-05 23:41 44.85704 17.33951 36967 ft 503 kts 120°
2026-05-05 23:41 44.82419 17.42612 36970 ft 503 kts 120°
2026-05-05 23:42 44.79108 17.51296 36979 ft 503 kts 120°
2026-05-05 23:42 44.75785 17.59980 36986 ft 503 kts 120°
2026-05-05 23:43 44.72469 17.68620 36995 ft 503 kts 120°
2026-05-05 23:43 44.69118 17.77324 36995 ft 504 kts 120°
2026-05-05 23:44 44.65782 17.85962 37000 ft 504 kts 120°
2026-05-05 23:44 44.62433 17.94606 37001 ft 504 kts 120°
2026-05-05 23:45 44.59078 18.03242 37004 ft 505 kts 121°
2026-05-05 23:45 44.55722 18.11851 36999 ft 506 kts 121°
2026-05-05 23:46 44.52317 18.20558 37007 ft 506 kts 121°
2026-05-05 23:46 44.48932 18.29190 37004 ft 506 kts 121°
2026-05-05 23:47 44.45545 18.37799 37002 ft 508 kts 121°
2026-05-05 23:47 44.42132 18.46449 36999 ft 509 kts 121°
2026-05-05 23:48 44.38700 18.55117 36997 ft 509 kts 121°
2026-05-05 23:48 44.35265 18.63770 36994 ft 509 kts 121°
2026-05-05 23:49 44.31837 18.72380 36999 ft 509 kts 121°
2026-05-05 23:49 44.28401 18.80980 37009 ft 509 kts 121°
2026-05-05 23:50 44.24938 18.89619 37022 ft 509 kts 121°
2026-05-05 23:50 44.21490 18.98197 37018 ft 507 kts 121°
2026-05-05 23:51 44.18029 19.06781 37014 ft 506 kts 121°
2026-05-05 23:51 44.14588 19.15298 37012 ft 506 kts 120°
2026-05-05 23:52 44.11622 19.24234 37024 ft 509 kts 114°
2026-05-05 23:52 44.08865 19.33294 37026 ft 508 kts 114°
2026-05-05 23:53 44.06148 19.42334 37022 ft 507 kts 114°
2026-05-05 23:53 44.03419 19.51373 37017 ft 507 kts 114°
2026-05-05 23:54 44.00683 19.60368 37025 ft 507 kts 114°
2026-05-05 23:54 43.97938 19.69352 37022 ft 506 kts 114°
2026-05-05 23:55 43.95176 19.78355 37026 ft 505 kts 114°
2026-05-05 23:55 43.92426 19.87294 37027 ft 506 kts 114°
2026-05-05 23:56 43.89669 19.96221 37028 ft 503 kts 114°
2026-05-05 23:56 43.86916 20.05108 37029 ft 501 kts 114°
2026-05-05 23:57 43.84160 20.13974 37025 ft 501 kts 114°
2026-05-05 23:57 43.81392 20.22845 37028 ft 501 kts 114°
2026-05-05 23:58 43.78629 20.31673 37024 ft 500 kts 114°
2026-05-05 23:58 43.75856 20.40503 37021 ft 499 kts 115°
2026-05-05 23:59 43.73089 20.49283 37022 ft 499 kts 115°
2026-05-05 23:59 43.70317 20.58050 37022 ft 499 kts 115°
2026-05-06 00:00 43.67532 20.66831 37034 ft 500 kts 115°
2026-05-06 00:00 43.64721 20.75660 37035 ft 500 kts 115°
2026-05-06 00:01 43.61919 20.84435 37035 ft 500 kts 114°
2026-05-06 00:01 43.59104 20.93219 37028 ft 501 kts 115°
2026-05-06 00:02 43.56284 21.01992 37033 ft 501 kts 115°
2026-05-06 00:02 43.53451 21.10774 37034 ft 501 kts 115°
2026-05-06 00:03 43.50630 21.19490 37035 ft 502 kts 114°
2026-05-06 00:03 43.47775 21.28283 37034 ft 503 kts 114°
2026-05-06 00:04 43.44900 21.37107 37037 ft 504 kts 115°
2026-05-06 00:04 43.42032 21.45880 37034 ft 504 kts 115°
2026-05-06 00:05 43.37721 21.59013 37033 ft 504 kts 114°
2026-05-06 00:06 43.34839 21.67761 37022 ft 504 kts 115°
2026-05-06 00:06 43.31924 21.76580 37051 ft 504 kts 115°
2026-05-06 00:07 43.29041 21.85270 37049 ft 504 kts 115°
2026-05-06 00:07 43.26114 21.94067 37052 ft 504 kts 115°
2026-05-06 00:08 43.23210 22.02764 37048 ft 504 kts 115°
2026-05-06 00:08 43.20292 22.11477 37048 ft 504 kts 115°
2026-05-06 00:09 43.17351 22.20227 37048 ft 503 kts 115°
2026-05-06 00:09 43.14416 22.28936 37047 ft 505 kts 115°
2026-05-06 00:10 43.11469 22.37650 37054 ft 505 kts 115°
2026-05-06 00:10 43.08531 22.46308 37060 ft 504 kts 115°
2026-05-06 00:11 43.05578 22.54983 37057 ft 504 kts 115°
2026-05-06 00:11 43.02601 22.63703 37058 ft 504 kts 115°
2026-05-06 00:12 42.99636 22.72363 37057 ft 503 kts 115°
2026-05-06 00:12 42.97523 22.81388 37059 ft 498 kts 97°
2026-05-06 00:13 42.97108 22.90722 37056 ft 494 kts 89°
2026-05-06 00:13 42.97132 23.00139 37051 ft 493 kts 87°
2026-05-06 00:14 42.97219 23.09474 37042 ft 492 kts 87°
2026-05-06 00:14 42.97273 23.18807 37042 ft 491 kts 88°
2026-05-06 00:15 42.97297 23.28094 37026 ft 490 kts 88°
2026-05-06 00:15 42.97305 23.37432 37031 ft 490 kts 88°
2026-05-06 00:16 42.97306 23.46724 37032 ft 490 kts 88°
2026-05-06 00:16 42.97300 23.56019 37018 ft 489 kts 88°
2026-05-06 00:17 42.97287 23.65300 37026 ft 489 kts 88°
2026-05-06 00:17 42.97267 23.74574 37025 ft 489 kts 88°
2026-05-06 00:18 42.97240 23.83844 37028 ft 489 kts 88°
2026-05-06 00:18 42.97205 23.93122 37025 ft 489 kts 88°
2026-05-06 00:19 42.97162 24.02379 37024 ft 489 kts 88°
2026-05-06 00:19 42.97112 24.11646 37031 ft 488 kts 89°
2026-05-06 00:20 42.97053 24.20907 37047 ft 488 kts 89°
2026-05-06 00:20 42.96988 24.30136 37026 ft 487 kts 89°
2026-05-06 00:21 42.96916 24.39392 37029 ft 486 kts 89°
2026-05-06 00:21 42.96837 24.48616 37027 ft 486 kts 89°
2026-05-06 00:22 42.96751 24.57826 37030 ft 486 kts 89°
2026-05-06 00:22 42.96656 24.67063 37031 ft 486 kts 89°
2026-05-06 00:23 42.96554 24.76282 37027 ft 486 kts 89°
2026-05-06 00:23 42.96445 24.85498 37029 ft 486 kts 89°
2026-05-06 00:24 42.96328 24.94769 37026 ft 486 kts 89°
2026-05-06 00:24 42.96204 25.03964 37024 ft 485 kts 89°
2026-05-06 00:25 42.96073 25.13131 37029 ft 483 kts 89°
2026-05-06 00:25 42.95936 25.22290 37030 ft 483 kts 89°
2026-05-06 00:26 42.95790 25.31487 37027 ft 484 kts 89°
2026-05-06 00:26 42.95637 25.40666 37022 ft 484 kts 89°
2026-05-06 00:27 42.95478 25.49810 37028 ft 484 kts 89°
2026-05-06 00:27 42.95311 25.58973 37023 ft 484 kts 89°
2026-05-06 00:28 42.95136 25.68145 37024 ft 484 kts 89°
2026-05-06 00:28 42.94952 25.77348 37029 ft 484 kts 90°
2026-05-06 00:29 42.94763 25.86505 37030 ft 483 kts 90°
2026-05-06 00:29 42.94566 25.95636 37022 ft 483 kts 90°
2026-05-06 00:30 42.94364 26.04774 37041 ft 483 kts 90°
2026-05-06 00:30 42.94189 26.12437 37051 ft 483 kts 90°